STARLINK-5696, 55484

Orbit data source: Space-Track

STARLINK-5696, 55484 is a payload satellite owned by SpaceX/Seattle (US) in LEO that was launched on Thu, 02 Feb 2023 UTC via an FALCON 9 launch vehicle from the Air Force Eastern Test Range (AFETR). Payload-class satellites include a variety of spacecraft equipped with specific instruments for various scientific and technological missions. These include communications satellites like Starlink; space stations such as the ISS; scientific satellites like the Hubble; Earth observation satellites from companies like Planet Labs, Umbra, and HawkEye 360; GPS; miniature CubeSats for education and research; and military/defense satellites.

Loading next visibility...
Identifier
55484, 2023-015AM
Orbit
LEO
Country
Flag of USUS
Related business
Manufacturer
SpaceX/Seattle
Mission
Operational Commercial Communications
Bus & Motor
STARLINK, Unknown motor
Mass
305 kg wet, ~290 kg dry
Launch date (UTC)
2023-02-02 (3 years ago)
Launch vehicle
FALCON 9
Launch site
Air Force Eastern Test Range (AFETR)
Object type
Payload
Rocket body
Debris
Shape & HBR
Box + 1 Pan, 4.4 m
Radar Cross Section
13.562 m², Large (>1 m²)

Expand to show TLE details & history
Last TLE update: 1 day ago

TLE from 1 day ago
0 STARLINK-5696
1 55484U 23015AM  25261.17070635  .00000011  00000-0  15859-4 0  9996
2 55484  43.0002 196.3167 0000406 292.1571  67.9229 15.02530120144651
Epoch: 2025-09-18T04:05Z
TLE epoch observation values (Epoch: 2025-09-18T04:05:49.028Z)
Latitude
0.00003°
Longitude
137.52631°
Altitude
558.77 km
Speed
7.584 km/s
True Right ascension
13h 05m 16s
True Declination
0° 00' 00"
Sunlit
Object was in daylight at epoch
Visualization orbit readout
Latitude
Unknown
Longitude
Unknown
Altitude
Unknown
Speed
Unknown
Apparent Right ascension
Unknown
Apparent Declination
Unknown
Sunlit
N/A
Visualization observer readout
Local Sidereal Time
21:42:03
Azimuth
Unknown
Elevation
Unknown
Doppler factor
Unknown
Orbital elements
Apogee altitude
561.303 km
Perigee altitude
560.74 km
Semi-major axis
6,939.159 km
Eccentricity
0.00004
Inclination
43.0002°
RAAN
196.3167°
Arg. of periapsis
292.1571°
True anomaly
67.92721°
Mean anomaly
67.9229°
Eccentric anomaly
67.92506°
Mean motion
3.75477 °/min
Orbital period
95.88 mins
BSTAR
0.000015859
Loading maneuver chart data...
Computing Atmospheric mass density...
Loading historical data...
Loading historical data...
Loading historical data...
Loading historical data...
Loading historical data...
Loading historical data...
Loading historical data...

Documentation

Showing up to 5 results
|